Flag for U.S.A. Weather past 2 weeks in Juneau, Alaska, U.S.A.

Now
42 °F

Partly cloudy.


Feels Like: 42 °F
Forecast: 39 / 56 °F
Wind: No wind

Location: Juneau International Airport

Current Time: Sep 1, 2015 at 5:04:55 AM

Latest Report: Sep 1, 2015 at 3:53 AM


Visibility: 10 mi

Pressure: 29.60 "Hg

Humidity: 100%

Dew point: 42 °F

Location of JuneauLocation

Historic Weather in Juneau — Graph

°F

Juneau temperature yesterday

Maximum temperature yesterday: 51 °F (at 12:53 PM)
Minimum temperature yesterday: 45 °F (at 11:53 PM)
Average temperature yesterday: 47 °F

Past Weeks' High & Low Weather Summary

 TemperatureHumidityPressure
High71 °F (Aug 26, 3:53 PM)100% (Aug 21, 8:53 AM)30.20 "Hg (Aug 21, 8:53 AM)
Low42 °F (Aug 25, 5:53 AM)47% (Aug 26, 2:53 PM)29.01 "Hg (Aug 30, 2:53 PM)
Average54 °F87%29.78 "Hg
* Reported Aug 17 2:53 AM — Sep 1 2:53 AM, Juneau, Weather by CustomWeather, © 2015

Note: Actual official high and low records may vary slightly from our data, if they occured in-between our weather recording intervals... More about our weather records

Advertising

Juneau weather history for previous 24 hours

 ConditionsComfort  
Time TempWeatherWind HumidityBarometerVisibility
2:53 AM
Tue, Sep 1
44 °FMostly cloudy.No wind93%29.59 "Hg7 mi
1:53 AM44 °FMostly cloudy.No wind96%29.58 "Hg10 mi
12:53 AM45 °FMostly cloudy.No wind97%29.57 "Hg10 mi
11:53 PM
Mon, Aug 31
45 °FMostly cloudy.No wind97%29.56 "Hg10 mi
10:53 PM46 °FMostly cloudy.No wind93%29.54 "Hg10 mi
9:53 PM47 °FMostly cloudy.6 mph93%29.53 "Hg10 mi
8:53 PM48 °FMostly cloudy.6 mph89%29.52 "Hg10 mi
7:53 PM47 °FLight rain. More clouds than sun.5 mph93%29.50 "Hg10 mi
6:53 PM48 °FLight rain. Mostly cloudy.9 mph93%29.49 "Hg8 mi
5:53 PM49 °FLight rain. Mostly cloudy.10 mph90%29.49 "Hg8 mi
4:53 PM49 °FLight rain. Mostly cloudy.9 mph90%29.48 "Hg7 mi
3:53 PM49 °FRain. Fog.12 mph90%29.47 "Hg5 mi
2:53 PM48 °FRain. Fog.6 mph93%29.47 "Hg6 mi
1:53 PM49 °FLight rain. Cloudy.13 mph90%29.45 "Hg7 mi
12:53 PM51 °FCloudy.13 mph83%29.43 "Hg10 mi
11:53 AM49 °FLight rain. Cloudy.5 mph93%29.42 "Hg7 mi
10:53 AM49 °FLight rain. Mostly cloudy.13 mph90%29.41 "Hg8 mi
9:53 AM48 °FRain. Mostly cloudy.7 mph93%29.39 "Hg3 mi
8:59 AM48 °FLight rain. Fog.No wind89%29.38 "Hg5 mi
7:53 AM47 °FLight rain. Fog.6 mph93%29.35 "Hg2 mi
6:53 AM46 °FLight rain. Fog.3 mph93%29.34 "Hg2 mi
5:53 AM46 °FLight rain. Fog.3 mph93%29.32 "Hg4 mi
Weather by CustomWeather, © 2015

See weather overviewHow to use our weather pages